RH
60 59 58 59 60 63 66 68 71 73 76 77 79 79 79 78 78 80 84 90 95 98 99 99 99 98 96 94 92 88 84 81 80 80 79 77 75 73 69 65 62 61
62 64 64 64 64 64 66 68 69 71 72 73 74 75 75 74 74 74 75 79 85 90 93 96 99 100 100 100 99 96 92 87 85 84 83 82 80 79 78 75 72 69
46 50 53 56 59 62 63 65 67 69 72 74 75 76 76 75 74 71 69 70 74 78 82 87 93 96 99 101 103 103 101 97 94 90 87 86 84 83 82 80 79 77
26 28 31 34 37 41 44 48 52 56 60 64 67 71 74 77 79 77 74 72 71 71 71 73 79 85 91 95 99 102 105 105 102 98 95 92 90 89 87 84 81 80
22 21 22 22 23 24 26 28 31 34 37 41 45 49 55 60 67 71 75 77 78 77 74 71 70 72 76 82 87 92 97 102 104 104 102 100 98 96 94 90 88 84
25 25 24 23 23 22 21 22 22 23 24 26 28 30 32 35 40 46 52 59 66 72 76 78 76 74 72 72 75 80 84 90 96 100 104 105 104 102 100 98 96 92
26 27 27 26 27 25 24 23 23 23 23 23 24 25 25 25 26 28 30 34 38 44 52 60 67 73 74 74 74 75 77 80 84 88 94 100 104 105 105 103 101 100
22 24 25 26 27 28 27 25 25 24 24 24 25 26 26 27 27 27 27 27 27 29 31 34 39 46 53 59 64 68 71 74 78 81 85 90 95 101 104 105 104 104
17 18 20 21 23 25 25 25 25 25 25 25 26 26 26 27 29 30 30 30 30 29 29 30 30 31 33 36 41 45 50 56 62 69 75 81 87 92 95 99 101 101
15 15 15 16 18 19 20 20 21 22 23 24 25 26 26 26 26 28 30 31 32 31 31 32 32 32 33 32 32 33 33 36 39 44 51 59 67 75 81 87 92 96
13 13 13 13 15 16 16 16 16 16 18 19 20 22 24 25 25 26 28 29 30 31 31 31 31 32 33 34 34 34 34 34 33 32 33 35 40 46 54 61 70 80
9 9 9 10 10 12 13 13 13 13 14 14 15 16 17 19 21 22 25 27 28 30 31 31 32 31 31 31 32 34 35 36 36 35 34 32 32 31 33 36 41 49
7 7 7 7 7 8 8 9 10 10 11 12 12 13 13 14 15 16 18 20 22 25 27 29 31 32 33 33 33 32 32 33 34 35 36 36 36 35 33 31 31 31
6 6 6 6 6 6 6 6 7 7 7 8 9 9 10 11 12 13 14 15 17 18 20 22 24 27 29 31 33 33 33 33 33 33 34 35 36 37 37 37 35 33
6 5 6 6 5 5 5 5 5 5 6 6 6 7 7 8 8 9 10 11 13 14 16 17 19 20 22 24 26 29 30 32 33 33 33 34 34 36 37 38 38 38
5 5 5 6 5 5 5 5 5 5 5 5 5 6 6 6 6 7 7 8 8 9 11 12 14 16 18 19 20 22 23 25 27 29 31 32 34 35 35 35 36 36
5 5 5 5 5 5 5 5 5 5 5 5 5 5 5 6 6 6 6 6 7 7 7 8 9 10 11 13 15 17 19 20 22 23 25 28 29 31 31 31 32 32
4 5 5 4 5 5 4 5 5 5 5 5 5 5 5 5 6 6 6 6 6 6 6 6 7 7 7 8 9 11 12 15 17 20 22 24 24 25 25 26 27 29
5 5 5 5 5 4 4 4 4 4 5 5 5 6 5 6 6 6 6 6 6 6 6 6 6 6 7 7 7 7 8 9 11 13 16 19 21 22 22 23 25 26
6 6 5 5 5 5 5 5 4 4 4 4 5 5 5 6 6 6 6 6 6 6 6 6 6 6 7 7 7 7 7 7 8 9 10 12 15 18 20 22 24 25
6 6 6 6 5 5 5 5 5 5 5 5 5 5 5 6 6 6 6 6 6 6 6 6 7 7 7 7 7 7 7 7 7 7 8 9 10 12 15 18 21 22
5 5 5 5 5 5 5 5 5 5 5 5 5 5 6 6 6 6 6 6 6 6 6 6 6 7 7 7 7 7 7 7 7 7 8 8 8 9 10 12 14 16
5 5 5 5 5 5 5 5 5 5 5 5 5 5 6 6 6 6 6 6 6 6 6 6 6 6 7 7 7 7 7 7 7 7 7 8 8 8 8 9 10 11
5 5 5 5 5 5 5 5 5 5 6 5 5 6 5 6 6 6 6 6 6 6 6 6 6 6 7 7 7 7 7 8 8 8 8 8 8 8 8 8 9 9
5 5 4 4 4 4 4 5 5 5 6 5 6 6 5 6 6 5 6 6 6 6 6 6 7 6 7 7 7 7 7 7 8 8 8 8 8 8 9 9 9 9
4 5 5 4 4 4 4 5 5 5 5 5 5 6 5 6 6 5 6 6 6 6 6 6 6 6 6 7 6 7 7 7 8 8 7 8 8 8 9 10 10 10
Wind_Speed
103 103 104 104 104 104 104 104 105 106 106 107 108 109 110 111 111 112 112 113 114 114 115 115 115 116 116 116 116 116 116 116 116 116 116 116 116 116 115 114 114 113
105 106 106 107 107 107 107 107 107 107 108 108 109 109 110 111 111 112 113 113 115 116 116 117 117 118 118 118 119 119 118 118 118 118 119 118 118 118 118 118 117 117
106 107 108 109 110 110 111 111 111 111 111 111 111 111 112 112 112 113 113 113 114 115 116 117 118 119 120 120 120 121 121 121 121 121 121 121 121 120 120 120 120 120
106 107 108 109 110 111 112 113 114 114 114 114 114 115 115 115 115 115 115 115 115 116 116 117 118 119 120 121 121 122 122 123 123 124 124 124 123 123 123 123 123 122
106 106 107 108 109 110 111 112 113 114 115 116 116 117 117 117 118 118 118 118 118 118 118 118 118 119 119 120 121 122 123 124 125 125 126 126 126 126 126 126 125 125
106 107 108 108 109 110 110 111 111 112 114 115 116 117 117 117 118 119 120 121 121 121 121 121 121 121 121 121 122 122 123 124 125 126 127 128 128 128 129 128 128 128
107 108 109 109 110 111 112 111 112 112 113 114 115 116 116 117 117 117 118 119 121 122 123 123 124 124 124 124 124 124 124 125 125 126 127 128 129 130 131 130 130 130
108 108 109 110 111 112 114 114 113 114 114 115 115 116 116 117 117 117 117 118 119 120 121 122 123 124 125 126 126 126 127 127 127 127 128 128 129 130 131 132 132 132
107 108 109 110 111 112 114 115 115 116 116 116 117 118 118 118 118 119 119 119 119 119 120 120 121 122 124 125 126 127 128 128 129 129 130 130 130 131 132 132 132 133
105 105 106 108 109 111 113 115 115 116 118 118 118 119 120 120 120 121 121 121 121 121 121 121 121 122 122 123 124 125 126 127 128 129 130 131 132 133 133 133 133 134
102 102 103 104 106 108 110 112 113 114 116 118 118 119 120 121 122 122 122 123 123 123 123 123 123 123 123 124 124 124 125 126 127 128 129 130 131 133 134 134 135 135
100 100 100 101 102 104 106 108 109 110 111 114 115 117 118 120 121 122 123 123 124 124 124 125 125 125 125 125 125 125 125 126 126 127 128 129 130 131 132 133 134 135
97 98 98 99 100 101 103 104 105 106 107 108 110 112 114 116 118 119 120 122 123 124 124 125 125 126 126 126 126 127 127 127 127 127 127 128 129 130 130 131 132 133
94 95 96 97 98 98 99 101 102 103 104 104 105 107 108 110 112 114 115 117 119 121 122 123 124 125 125 126 127 127 127 127 127 127 128 128 128 129 129 130 131 132
89 91 92 93 95 95 96 97 98 99 101 102 102 103 104 106 108 109 111 112 114 115 117 118 120 121 122 124 125 126 126 127 127 127 127 128 128 129 129 130 130 131
84 85 87 89 90 92 92 93 95 96 97 98 99 100 101 102 104 105 107 108 110 111 112 114 115 116 118 119 121 122 123 124 125 126 127 127 128 128 129 130 130 131
82 82 83 84 86 87 88 89 90 92 93 94 95 97 97 99 100 101 103 104 106 107 109 110 111 112 113 115 116 117 119 120 121 122 124 125 127 128 128 129 129 129
80 81 81 82 83 83 84 84 86 87 88 90 91 92 93 94 96 97 99 100 101 103 104 106 107 108 110 111 112 113 114 115 117 118 120 122 124 125 126 127 127 127
78 79 80 81 81 81 81 81 81 82 83 84 85 87 88 89 91 92 94 96 97 98 99 100 102 103 105 106 108 109 110 110 112 114 116 118 119 121 122 123 124 125
74 76 77 78 79 80 80 79 79 78 79 79 80 81 82 84 85 87 89 91 93 94 94 95 96 98 99 101 103 104 105 106 108 111 112 114 115 116 117 118 120 121
71 72 73 75 76 77 77 77 76 76 77 77 77 77 78 79 80 82 84 86 87 89 90 90 91 93 95 96 98 99 100 102 104 106 107 109 110 112 113 115 116 117
69 69 69 71 73 74 74 74 73 73 74 75 74 75 75 76 77 78 79 81 83 84 85 85 86 88 90 92 94 95 96 98 99 101 102 104 106 107 109 111 112 113
66 67 67 68 69 70 71 70 70 70 71 72 72 72 72 73 74 74 75 77 79 80 80 81 82 83 85 87 89 90 92 94 95 96 97 99 101 102 104 105 106 107
65 65 66 66 66 67 67 67 67 67 69 69 69 69 70 71 71 72 72 74 75 76 77 78 78 79 81 82 84 85 87 89 90 91 93 94 96 97 97 98 99 101
63 64 64 64 64 64 64 64 64 65 66 67 67 67 68 68 69 69 70 71 72 73 73 74 75 76 77 79 80 81 82 84 86 88 89 90 91 92 92 93 95 96
60 61 61 62 62 62 61 61 62 63 63 64 64 65 66 66 67 67 68 69 69 70 70 71 72 73 74 75 76 77 78 80 83 85 86 86 87 88 89 90 91 93
Wind_Direction
268 268 267 267 266 265 264 263 262 262 261 260 260 260 259 259 258 258 257 257 256 256 256 255 255 255 256 257 257 257 257 257 256 256 256 255 255 256 255 255 255 254
267 267 267 266 266 265 264 263 262 261 261 260 260 259 259 259 259 258 258 257 257 256 256 256 255 255 255 255 256 256 257 257 257 257 257 256 256 255 255 255 255 255
267 266 266 265 265 265 265 264 263 262 261 260 260 259 259 258 258 258 258 257 257 257 256 256 256 255 255 255 255 255 255 256 257 257 257 257 257 256 256 255 255 255
267 267 266 265 265 264 264 264 263 263 262 261 260 259 259 258 258 258 257 257 257 256 256 256 256 256 255 255 255 255 255 255 255 256 256 257 257 257 257 257 256 256
268 267 266 265 265 264 263 263 263 263 262 262 261 260 259 258 258 258 257 257 256 256 256 256 256 256 256 255 255 255 255 254 254 255 255 255 256 256 257 257 257 257
267 266 266 265 265 264 263 262 262 262 262 261 261 261 260 259 258 257 257 257 257 256 256 255 255 255 255 255 255 255 255 255 254 254 255 255 255 255 256 256 256 257
266 265 265 264 264 263 263 262 261 261 261 260 260 260 260 260 259 258 257 257 256 256 256 256 255 255 255 255 255 255 255 255 255 255 255 255 255 255 255 255 256 256
265 264 264 263 262 262 262 262 261 261 260 260 259 259 259 259 259 259 258 257 257 256 256 256 255 255 255 255 255 255 255 255 255 255 255 255 255 255 255 255 255 255
265 264 263 263 262 261 261 261 261 260 260 259 259 259 259 258 258 258 258 258 257 257 256 256 256 255 255 255 255 255 255 255 255 255 255 255 255 255 255 255 255 255
266 265 264 263 262 262 261 261 260 260 260 259 259 258 258 258 258 258 258 257 257 257 257 256 256 256 256 255 255 255 255 255 255 255 255 255 255 255 255 255 255 255
268 267 265 264 263 263 262 261 260 260 260 260 259 259 258 258 258 258 258 257 257 257 257 257 257 256 256 256 255 255 255 255 255 255 255 255 255 255 255 255 255 255
269 268 267 266 265 264 263 262 261 260 260 260 260 260 259 259 258 258 258 258 257 257 257 257 257 257 256 256 256 256 255 255 255 255 255 255 255 255 255 255 255 255
269 269 268 267 266 265 264 264 263 262 261 260 260 260 259 259 259 259 258 258 258 258 257 257 257 257 257 257 256 256 256 256 255 255 255 255 255 255 255 255 255 256
270 269 268 267 267 266 265 265 264 264 263 262 261 260 260 260 259 259 259 258 258 258 258 258 257 257 257 257 257 257 257 256 256 256 256 255 255 255 255 255 255 255
270 270 269 268 267 266 266 265 264 264 264 263 262 261 261 260 260 260 259 259 259 259 258 258 258 258 257 257 257 257 257 257 257 256 256 256 256 256 255 255 255 255
271 269 269 268 267 266 266 265 265 264 264 263 263 262 262 261 260 260 260 260 259 259 259 259 258 258 258 258 257 257 257 257 257 257 257 257 256 256 256 256 255 255
273 271 270 268 267 266 265 265 264 264 263 263 263 263 262 262 261 261 260 260 260 259 259 259 259 259 259 258 258 258 257 257 257 257 257 257 256 256 256 256 256 256
275 274 272 271 269 268 267 265 264 264 263 263 263 263 263 262 262 262 261 261 260 260 259 259 259 259 259 259 259 258 258 258 258 257 257 257 256 256 257 257 257 257
275 274 273 273 272 271 269 268 267 265 264 263 263 263 263 262 262 262 262 262 261 261 260 260 260 260 260 260 260 260 259 259 258 258 257 257 257 257 257 257 257 257
275 274 273 273 272 272 271 270 269 268 267 265 264 263 262 262 262 261 261 261 261 261 261 260 260 260 260 260 260 260 260 259 259 258 258 257 257 257 257 257 257 257
276 275 274 273 273 272 271 271 270 270 269 267 266 265 263 262 262 261 261 261 261 260 260 260 260 260 259 259 259 260 260 259 259 258 258 258 257 257 257 257 257 257
277 276 275 274 273 273 272 271 271 270 269 268 267 266 265 264 262 262 261 261 261 261 260 260 259 259 259 259 259 259 259 259 259 258 258 258 258 257 257 257 257 257
278 277 275 274 273 273 273 272 272 271 269 269 268 267 266 265 264 262 262 261 261 261 261 260 260 259 259 259 259 259 259 259 259 259 258 258 258 258 258 258 258 258
279 278 277 275 274 274 273 273 272 271 270 269 269 268 267 266 265 264 263 262 261 261 261 261 261 260 260 259 259 259 259 260 260 260 259 259 259 259 259 259 259 259
280 279 278 277 276 275 274 273 272 271 270 270 269 268 267 266 266 265 264 263 263 262 262 262 261 261 261 260 260 260 260 260 260 260 260 260 260 260 260 260 260 259
280 279 278 278 277 276 275 274 272 271 270 269 269 268 267 266 266 265 265 264 264 263 263 262 262 261 261 261 261 260 260 260 260 260 260 260 261 261 261 261 261 260